This is the latest recevied weather packets stored in our database for station/object KD2VWU. If no packets are shown the sender has not sent any weather packets the latest 10 day(s).
| Time | Temp. | Humidity | Pressure | Rain* | Wind** | Luminosity | Snow |
|---|---|---|---|---|---|---|---|
| 1777589415 | 12.78° C | 74% | 1004.8 hPa | 0 mm | - | - | - |
| 1777589112 | 12.78° C | 73% | 1004.7 hPa | 0 mm | - | - | - |
| 1777588808 | 12.78° C | 73% | 1004.8 hPa | 0 mm | - | - | - |
| 1777588504 | 13.33° C | 75% | 1004.9 hPa | 0 mm | - | - | - |
| 1777588198 | 13.33° C | 75% | 1004.7 hPa | 0 mm | - | - | - |
| 1777587894 | 13.33° C | 74% | 1004.5 hPa | 0 mm | - | - | - |
| 1777587590 | 13.89° C | 73% | 1004.6 hPa | 0 mm | - | - | - |
| 1777587285 | 13.89° C | 73% | 1004.4 hPa | 0 mm | - | - | - |
| 1777586981 | 13.89° C | 73% | 1004.3 hPa | 0 mm | - | - | - |
| 1777586677 | 13.89° C | 74% | 1004.3 hPa | 0 mm | - | - | - |
| 1777586372 | 13.89° C | 78% | 1004.3 hPa | 0 mm | - | - | - |
| 1777586072 | 13.33° C | 80% | 1003.9 hPa | 0 mm | - | - | - |
| 1777585770 | 13.89° C | 80% | 1004.1 hPa | 0 mm | - | - | - |
| 1777585465 | 13.89° C | 78% | 1004.1 hPa | 0 mm | - | - | - |
| 1777585162 | 14.44° C | 81% | 1004.1 hPa | 0 mm | - | - | - |
| 1777584857 | 14.44° C | 78% | 1004.2 hPa | 0 mm | - | - | - |
| 1777584555 | 13.89° C | 83% | 1004.2 hPa | 0 mm | - | - | - |
| 1777584251 | 13.89° C | 84% | 1004.1 hPa | 0 mm | - | - | - |
| 1777583945 | 13.89° C | 85% | 1003.8 hPa | 0 mm | - | - | - |
| 1777583641 | 13.89° C | 86% | 1004 hPa | 0 mm | - | - | - |
| 1777583340 | 13.89° C | 85% | 1003.9 hPa | 0 mm | - | - | - |
| 1777583035 | 13.89° C | 84% | 1003.8 hPa | 0 mm | - | - | - |
| 1777582732 | 13.89° C | 85% | 1003.9 hPa | 0 mm | - | - | - |
| 1777582427 | 13.89° C | 84% | 1003.5 hPa | 0 mm | - | - | - |
| 1777582127 | 13.89° C | 82% | 1003.5 hPa | 0 mm | - | - | - |
* Rain latest hour (hover to see other rain measurements)
** Current wind speed in m/s (hover to see current wind gust speed)